When you browse on this site, cookies collect data to enhance your experience and personalize the content and advertising you see.
Visit our Privacy Policy to learn more. By continuing to use the site, you agree to this use of cookies and data.
  • In Hungary
  • List of Countries
  • For 7 days
  • Water Temperature
  • Weather Map
  • News
  • Weather Widgets
  • user-avatar
    Login

    Hourly Weather Amlwch

    Today, 10 December, Tuesday

    Time Temperature Precipitation Wind Pressure Humidity
    00:00 +6°C° 0 mm 10 mps 763 mmHg 84%
    01:00 +6°C° 0 mm 11 mps 762 mmHg 84%
    02:00 +7°C° 0 mm 12 mps 761 mmHg 84%
    03:00 +7°C° 0 mm 13 mps 760 mmHg 84%
    04:00 +6°C° 0.2 mm 14 mps 758 mmHg 85%
    05:00 +6°C° 0.2 mm 15 mps 757 mmHg 86%
    06:00 +6°C° 0 mm 15 mps 755 mmHg 88%
    07:00 +7°C° 0.9 mm 16 mps 754 mmHg 89%
    08:00 +7°C° 0.9 mm 16 mps 752 mmHg 90%
    09:00 +9°C° 0.9 mm 16 mps 750 mmHg 91%
    10:00 +10°C° 0.4 mm 16 mps 749 mmHg 90%
    11:00 +10°C° 0.4 mm 16 mps 747 mmHg 90%
    12:00 +10°C° 0 mm 16 mps 746 mmHg 90%
    13:00 +11°C° 1.6 mm 17 mps 745 mmHg 90%
    14:00 +11°C° 1.6 mm 18 mps 744 mmHg 91%
    15:00 +11°C° 1.6 mm 19 mps 743 mmHg 91%
    16:00 +9°C° 1 mm 17 mps 744 mmHg 86%
    17:00 +6°C° 1 mm 16 mps 746 mmHg 80%
    18:00 +5°C° 1 mm 14 mps 748 mmHg 75%
    19:00 +5°C° 0.1 mm 14 mps 748 mmHg 73%
    20:00 +5°C° 0.1 mm 13 mps 749 mmHg 70%
    21:00 +5°C° 0.1 mm 13 mps 750 mmHg 68%
    22:00 +4°C° 0 mm 13 mps 751 mmHg 68%
    23:00 +4°C° 0 mm 12 mps 751 mmHg 67%

    Tomorrow, 11 December, Wednesday

    Time Temperature Precipitation Wind Pressure Humidity
    00:00 +4°C° 0 mm 11 mps 751 mmHg 67%
    01:00 +4°C° 0 mm 11 mps 751 mmHg 68%
    02:00 +4°C° 0 mm 11 mps 751 mmHg 68%
    03:00 +4°C° 0 mm 11 mps 751 mmHg 69%
    04:00 +4°C° 0.1 mm 11 mps 751 mmHg 70%
    05:00 +4°C° 0.1 mm 11 mps 750 mmHg 71%
    06:00 +4°C° 0.1 mm 12 mps 750 mmHg 72%
    07:00 +4°C° 0.1 mm 11 mps 749 mmHg 72%
    08:00 +3°C° 0.1 mm 10 mps 749 mmHg 72%
    09:00 +3°C° 0.1 mm 9 mps 749 mmHg 71%
    10:00 +4°C° 0.2 mm 8 mps 748 mmHg 73%
    11:00 +4°C° 0.2 mm 8 mps 748 mmHg 75%
    12:00 +4°C° 0.2 mm 8 mps 748 mmHg 77%
    13:00 +4°C° 0.2 mm 8 mps 748 mmHg 75%
    14:00 +3°C° 0.2 mm 9 mps 748 mmHg 73%
    15:00 +3°C° 0.2 mm 9 mps 748 mmHg 72%
    16:00 +3°C° 0.3 mm 9 mps 748 mmHg 72%
    17:00 +3°C° 0.3 mm 10 mps 749 mmHg 72%
    18:00 +3°C° 0.3 mm 10 mps 749 mmHg 72%
    19:00 +2°C° 0.2 mm 10 mps 750 mmHg 73%
    20:00 +2°C° 0.2 mm 10 mps 750 mmHg 74%
    21:00 +2°C° 0.2 mm 9 mps 750 mmHg 74%
    22:00 +2°C° 0.1 mm 9 mps 750 mmHg 75%
    23:00 +2°C° 0.1 mm 9 mps 750 mmHg 75%

    Day after tomorrow, 12 December, Thursday

    Time Temperature Precipitation Wind Pressure Humidity
    00:00 +2°C° 0.1 mm 9 mps 750 mmHg 75%
    01:00 +2°C° 0 mm 9 mps 749 mmHg 75%
    02:00 +2°C° 0 mm 8 mps 749 mmHg 74%
    03:00 +2°C° 0 mm 8 mps 748 mmHg 74%
    04:00 +2°C° 0 mm 8 mps 747 mmHg 78%
    05:00 +2°C° 0 mm 8 mps 746 mmHg 82%
    06:00 +2°C° 0 mm 8 mps 745 mmHg 86%
    07:00 +2°C° 0.3 mm 9 mps 744 mmHg 87%
    08:00 +2°C° 0.3 mm 9 mps 742 mmHg 88%
    09:00 +3°C° 0.3 mm 10 mps 741 mmHg 90%
    10:00 +3°C° 2.2 mm 9 mps 739 mmHg 91%
    11:00 +3°C° 2.2 mm 9 mps 738 mmHg 92%
    12:00 +5°C° 2.2 mm 9 mps 736 mmHg 93%
    13:00 +5°C° 1.6 mm 8 mps 735 mmHg 92%
    14:00 +5°C° 1.6 mm 6 mps 733 mmHg 92%
    15:00 +7°C° 1.6 mm 5 mps 732 mmHg 91%
    16:00 +7°C° 0.7 mm 5 mps 731 mmHg 92%
    17:00 +7°C° 0.7 mm 6 mps 730 mmHg 93%
    18:00 +7°C° 0.7 mm 6 mps 729 mmHg 94%
    19:00 +6°C° 1.2 mm 8 mps 729 mmHg 89%
    20:00 +6°C° 1.2 mm 11 mps 729 mmHg 84%
    21:00 +5°C° 1.2 mm 13 mps 728 mmHg 79%
    22:00 +4°C° 0.4 mm 14 mps 728 mmHg 83%
    23:00 +4°C° 0.4 mm 14 mps 729 mmHg 86%

    13 December, Friday

    Time Temperature Precipitation Wind Pressure Humidity
    00:00 +3°C° 0.4 mm 14 mps 729 mmHg 89%
    01:00 +2°C° 0.9 mm 15 mps 729 mmHg 85%
    02:00 +4°C° 0.9 mm 16 mps 729 mmHg 80%
    03:00 +3°C° 0.9 mm 17 mps 730 mmHg 75%
    04:00 +4°C° 0.1 mm 16 mps 730 mmHg 76%
    05:00 +4°C° 0.1 mm 15 mps 731 mmHg 77%
    06:00 +4°C° 0.1 mm 14 mps 732 mmHg 78%
    07:00 +4°C° 0 mm 13 mps 733 mmHg 79%
    08:00 +4°C° 0 mm 13 mps 734 mmHg 79%
    09:00 +5°C° 0 mm 12 mps 734 mmHg 80%
    10:00 +5°C° 0.2 mm 12 mps 735 mmHg 79%
    11:00 +5°C° 0.2 mm 12 mps 735 mmHg 78%
    12:00 +5°C° 0.2 mm 13 mps 736 mmHg 77%
    13:00 +5°C° 0 mm 12 mps 736 mmHg 76%
    14:00 +5°C° 0 mm 12 mps 736 mmHg 74%
    15:00 +4°C° 0 mm 11 mps 736 mmHg 72%
    16:00 +5°C° 0.1 mm 10 mps 735 mmHg 73%
    17:00 +5°C° 0.1 mm 9 mps 734 mmHg 75%
    18:00 +4°C° 0.1 mm 8 mps 734 mmHg 76%
    19:00 +4°C° 0.7 mm 7 mps 733 mmHg 82%
    20:00 +5°C° 0.7 mm 5 mps 732 mmHg 88%
    21:00 +5°C° 0.7 mm 3 mps 731 mmHg 94%
    22:00 +4°C° 1.9 mm 6 mps 731 mmHg 92%
    23:00 +4°C° 1.9 mm 8 mps 731 mmHg 90%

    14 December, Saturday

    Time Temperature Precipitation Wind Pressure Humidity
    00:00 +3°C° 1.9 mm 10 mps 731 mmHg 88%
    01:00 +3°C° 0.5 mm 12 mps 732 mmHg 81%
    02:00 +3°C° 0.5 mm 14 mps 733 mmHg 75%
    03:00 +1°C° 0.5 mm 16 mps 733 mmHg 68%
    04:00 +1°C° 0.2 mm 16 mps 734 mmHg 68%
    05:00 +1°C° 0.2 mm 15 mps 734 mmHg 67%
    06:00 +1°C° 0.2 mm 15 mps 734 mmHg 66%
    07:00 +1°C° 0.4 mm 16 mps 734 mmHg 67%
    08:00 0°C° 0.4 mm 16 mps 735 mmHg 67%
    09:00 0°C° 0.4 mm 17 mps 735 mmHg 67%
    10:00 0°C° 0.4 mm 17 mps 735 mmHg 67%
    11:00 +1°C° 0.4 mm 18 mps 735 mmHg 66%
    12:00 +1°C° 0.4 mm 18 mps 735 mmHg 65%
    13:00 +1°C° 0.2 mm 18 mps 736 mmHg 63%
    14:00 +1°C° 0.2 mm 18 mps 736 mmHg 62%
    15:00 +1°C° 0.2 mm 18 mps 736 mmHg 60%
    16:00 +1°C° 0.1 mm 17 mps 737 mmHg 61%
    17:00 0°C° 0.1 mm 17 mps 737 mmHg 62%
    18:00 0°C° 0.1 mm 17 mps 737 mmHg 62%
    19:00 0°C° 0.1 mm 16 mps 738 mmHg 62%
    20:00 +1°C° 0.1 mm 15 mps 738 mmHg 61%
    21:00 +1°C° 0.1 mm 14 mps 738 mmHg 61%
    22:00 0°C° 0 mm 12 mps 737 mmHg 62%
    23:00 +1°C° 0 mm 10 mps 737 mmHg 63%

    15 December, Sunday

    Time Temperature Precipitation Wind Pressure Humidity
    00:00 +1°C° 0 mm 8 mps 736 mmHg 64%
    01:00 +1°C° 0 mm 8 mps 736 mmHg 64%
    02:00 +1°C° 0 mm 8 mps 736 mmHg 64%
    03:00 +1°C° 0 mm 8 mps 735 mmHg 64%
    04:00 +1°C° 0 mm 8 mps 736 mmHg 65%
    05:00 +1°C° 0 mm 9 mps 736 mmHg 66%
    06:00 +1°C° 0 mm 10 mps 737 mmHg 67%
    07:00 +1°C° 0.1 mm 10 mps 737 mmHg 66%
    08:00 +2°C° 0.1 mm 10 mps 737 mmHg 65%
    09:00 +2°C° 0.1 mm 11 mps 738 mmHg 64%
    10:00 +2°C° 0 mm 11 mps 738 mmHg 66%
    11:00 +3°C° 0 mm 11 mps 739 mmHg 67%
    12:00 +4°C° 0 mm 12 mps 739 mmHg 68%
    13:00 +4°C° 0.1 mm 12 mps 740 mmHg 68%
    14:00 +4°C° 0.1 mm 12 mps 740 mmHg 67%
    15:00 +4°C° 0.1 mm 11 mps 741 mmHg 66%
    16:00 +4°C° 0 mm 11 mps 741 mmHg 67%
    17:00 +4°C° 0 mm 11 mps 742 mmHg 68%
    18:00 +5°C° 0 mm 10 mps 743 mmHg 69%
    19:00 +4°C° 0.2 mm 11 mps 743 mmHg 69%
    20:00 +3°C° 0.2 mm 11 mps 744 mmHg 69%
    21:00 +3°C° 0.2 mm 12 mps 745 mmHg 70%
    22:00 +3°C° 0 mm 11 mps 745 mmHg 70%
    23:00 +3°C° 0 mm 11 mps 746 mmHg 69%
    Show more